Regional Weather Roundup
Issued by NWS

Home | Current Version | Previous Version | Graphics & Text | Print | Product List | Glossary On
Versions: 1 2 3 4 5 6 7 8 9 10 11 12 13 14 15 16 17 18 19 20 21 22 23 24 25 26 27 28 29 30 31 32 33 34 35 36 37 38 39 40 41 42 43 44 45 46 47 48 49 50
000
ASUS45 KSLC 231210
RWRUT

UTAH REGIONAL WEATHER ROUNDUP
NATIONAL WEATHER SERVICE SALT LAKE CITY UT
600 AM MDT SAT MAY 23 2015

UTZ001>011-023>025-231300-

NORTHERN UTAH

CITY           SKY/WX    TMP DP  RH WIND       PRES   REMARKS
BRIGHAM CITY   CLOUDY    51  48  89 CALM      29.92S
HILL AFB       LGT RAIN  48  46  93 S3        29.92S
LOGAN          LGT RAIN  50  47  89 E3        29.91F
OGDEN          LGT RAIN  49  47  93 SE6       29.91S
PROVO AIRPORT  MOCLDY    45  41  87 E5        29.93F
SALT LAKE CITY CLOUDY    50  46  86 SE8       29.92F
VERNAL         CLEAR     43  39  86 W5        29.95S
WENDOVER       CLOUDY    54  45  71 NW8       29.89S
HEBER CITY     MOCLDY    41  37  87 E6        29.93S
WEST JORDAN    CLOUDY    48  45  87 SW6       29.93F

$$

UTZ012>022-026-027-231300-

SOUTHERN/CENTRAL UTAH

CITY           SKY/WX    TMP DP  RH WIND       PRES   REMARKS
BLANDING       PTCLDY    38  30  74 CALM      30.06F
BRYCE CANYON   LGT RAIN  36  35  96 SE6       29.98F VSB 1/4 WCI  31
CEDAR CITY     CLOUDY    43  41  93 SW10      29.95F
DELTA          CLOUDY    45  42  90 SE6       29.93S
HANKSVILLE     CLOUDY    50  36  57 SE5       29.93S
MILFORD        CLOUDY    46  42  86 S10       29.93F
MOAB/CYNLANDS  CLEAR     48  39  71 CALM      29.90S
PRICE          CLOUDY    44  34  67 N13       29.93R
ST GEORGE      CLOUDY    54  45  71 SE6       29.97S
KANAB          CLOUDY    43  43 100 SE5       30.03F

$$

REGIONAL REPORTS     COLORADO/ARIZONA

CITY           SKY/WX    TMP DP  RH WIND       PRES   REMARKS
CRAIG, CO      CLOUDY    41  38  89 W7        30.03R
GRAND JUNCTION CLEAR     45  42  89 E12       29.92F
RIFLE          CLEAR     44  39  82 S3        29.96F
MONTROSE       CLEAR     43  36  76 SE9       29.99F
CORTEZ         MOCLDY    37  35  92 E3        30.01F
PAGE, AZ       CLOUDY    50  40  68 SE6       29.96F
GRAND CANYON   CLOUDY    36  35  96 SW3       30.04S
KINGMAN        CLEAR     45  38  76 SE6       29.97S
FLAGSTAFF      CLOUDY    38  33  82 W5        30.05S WCI  34

$$

REGIONAL REPORTS    NEVADA/IDAHO/WYOMING

CITY           SKY/WX    TMP DP  RH WIND       PRES   REMARKS
LAS VEGAS, NV  PTCLDY    59  42  53 S10       29.87S
ELY            LGT RAIN  44  40  85 VRB3      29.96F
ELKO           CLOUDY    48  45  89 SW5       29.95S
POCATELLO, ID  CLOUDY    51  51 100 CALM      29.90F
BURLEY         LGT RAIN  50  47  89 CALM      29.90R FOG
EVANSTON, WY   FOG       36  35  96 S7        29.96S VSB 1/4 WCI  30
ROCK SPRINGS   PTCLDY    38  35  89 SE7       29.97F WCI  33
KEMMERER       CLOUDY    37  37 100 NW5       29.96F WCI  34

$$



USA.gov is the U.S. government's official web portal to all federal, state and local government web resources and services.